Hourly Data Report for July 03, 2021

LONDON CS
ONTARIO
Current Station Operator: ECCC - MSC

43°02'00.000" N
81°09'00.000" W
278.00 m
6144478
71622
WSN

Download Data

Hourly Data (July 2021)
Hourly Data Report for July 3, 2021
TIME
LST
Temp Definition
°C
Dew Point Definition
°C
Rel Hum Definition
%
Precip. Amount Definition
mm

Wind Dir Definition
10's deg

Wind Spd Definition
km/h
Visibility Definition
km
Stn Press Definition
kPa
Hmdx Definition


Wind Chill Definition


Weather Definition


00:00 14.2 10.0 76 0.0       98.15     LegendNANA
01:00 13.9 10.1 78 0.0       98.10     LegendNANA
02:00 13.7 10.4 80 0.0       98.06     LegendNANA
03:00 12.6 10.1 85 0.0       98.06     LegendNANA
04:00 12.0 10.1 88 0.0       98.06     LegendNANA
05:00 11.3 10.2 93 0.0       98.09     LegendNANA
06:00 13.7 11.3 86 0.0       98.11     LegendNANA
07:00 14.9 11.4 80 0.0       98.12     LegendNANA
08:00 16.4 12.1 76 0.0       98.19     LegendNANA
09:00 18.7 10.4 59 0.0       98.15     LegendNANA
10:00 20.3 12.8 62 0.0       98.11     LegendNANA
11:00 21.0 12.4 58 0.0       98.08     LegendNANA
12:00 22.2 10.9 49 0.0       98.01     LegendNANA
13:00 22.8 11.1 48 0.0       97.91 25   LegendNANA
14:00 23.6 11.5 46 0.0       97.87 26   LegendNANA
15:00 24.8 10.5 41 0.0       97.84 26   LegendNANA
16:00 24.0 9.5 40 0.0       97.80 25   LegendNANA
17:00 24.7 10.2 40 0.0       97.79 26   LegendNANA
18:00 22.4 15.0 63 0.0       97.79 26   LegendNANA
19:00 21.3 14.8 66 0.0       97.81 25   LegendNANA
20:00 19.8 14.7 72 0.0       97.80     LegendNANA
21:00 18.1 14.7 80 0.0       97.83     LegendNANA
22:00 17.2 14.6 84 0.0       97.84     LegendNANA
23:00 16.8 14.4 86 0.0       97.84     LegendNANA

Notes on Data Quality.

Legend

  • E = Estimated
  • M = Missing
  • NA = Not Available*
  • [empty] = Indicates an unobserved value
Date modified: